DW0952 Weather Reports


Display with metric or nautical units.
time (UTC)temp
F
wind
direction
speed
MPH
gust
MPH
rain 1hr
in
rain 24hr
in
rain mn
in
humidity
%
barometer
mb
20201128073110 34 314 2.0 4.0 0.00 0.00 0.00 51 1016.9
20201128071554 34 314 2.0 4.0 0.00 0.00 0.00 50 1017.0
20201128070030 35 314 1.0 3.0 0.00 0.00 0.00 45 1017.1
20201128064526 37 0 0.0 1.0 0.00 0.00 0.00 41 1017.1
20201128063035 38 0 0.0 4.0 0.00 0.00 0.00 43 1017.1
20201128061618 39 314 2.0 6.0 0.00 0.00 0.00 43 1017.2
20201128060035 39 314 2.0 4.0 0.00 0.00 0.00 43 1017.3
20201128054617 39 314 2.0 4.0 0.00 0.00 0.00 42 1017.3
20201128053041 39 314 3.0 6.0 0.00 0.00 0.00 42 1017.3
20201128051556 37 314 3.0 6.0 0.00 0.00 0.00 44 1017.2
20201128050039 36 344 1.0 4.0 0.00 0.00 0.00 42 1017.2
20201128044557 36 343 3.0 5.0 0.00 0.00 0.00 42 1017.2
20201128043029 37 344 2.0 5.0 0.00 0.00 0.00 42 1017.2
20201128041542 37 343 2.0 4.0 0.00 0.00 0.00 41 1017.2
20201128040107 38 343 2.0 4.0 0.00 0.00 0.00 40 1017.1
20201128034556 38 343 2.0 4.0 0.00 0.00 0.00 40 1016.8
20201128033053 38 343 2.0 3.0 0.00 0.00 0.00 39 1016.7
20201128031541 39 0 1.0 3.0 0.00 0.00 0.00 39 1016.7
20201128030110 39 343 2.0 5.0 0.00 0.00 0.00 37 1016.4
20201128024530 41 343 2.0 4.0 0.00 0.00 0.00 36 1016.4
20201128023029 43 343 1.0 4.0 0.00 0.00 0.00 34 1016.4
20201128021523 42 345 3.0 6.0 0.00 0.00 0.00 35 1016.2
20201128020104 42 344 0.0 3.0 0.00 0.00 0.00 33 1016.2
20201128014539 43 344 1.0 4.0 0.00 0.00 0.00 32 1016.1
20201128013055 45 344 1.0 3.0 0.00 0.00 0.00 30 1015.8
20201128011548 46 0 0.0 3.0 0.00 0.00 0.00 29 1015.8
20201128010035 48 344 2.0 4.0 0.00 0.00 0.00 27 1015.6
20201128004548 49 344 2.0 8.0 0.00 0.00 0.00 26 1015.3
20201128003106 50 350 2.0 6.0 0.00 0.00 0.00 24 1015.2
20201128001528 51 341 3.0 9.0 0.00 0.00 0.00 24 1014.7
20201128000036 53 335 4.0 10.0 0.00 0.00 0.00 22 1014.6
20201127234534 54 338 6.0 11.0 0.00 0.00 0.00 21 1014.3
20201127233043 55 342 8.0 12.0 0.00 0.00 0.00 20 1014.2
20201127231551 56 311 6.0 12.0 0.00 0.00 0.00 20 1014.1
20201127230058 57 324 6.0 11.0 0.00 0.00 0.00 19 1013.9
20201127224611 58 333 5.0 12.0 0.00 0.00 0.00 18 1013.7
20201127223120 58 348 7.0 14.0 0.00 0.00 0.00 17 1013.6
20201127221549 58 5 5.0 15.0 0.00 0.00 0.00 17 1013.6
20201127220109 58 342 7.0 14.0 0.00 0.00 0.00 17 1013.5
20201127214601 59 17 6.0 12.0 0.00 0.00 0.00 17 1013.4
20201127213110 59 15 7.0 13.0 0.00 0.00 0.00 17 1013.5
20201127211620 59 13 7.0 15.0 0.00 0.00 0.00 17 1013.4
20201127210053 59 280 1.0 7.0 0.00 0.00 0.00 18 1013.4
20201127204533 58 326 2.0 10.0 0.00 0.00 0.00 18 1013.5
20201127203029 58 60 6.0 12.0 0.00 0.00 0.00 19 1013.6
20201127201547 58 297 3.0 8.0 0.00 0.00 0.00 20 1013.5
20201127200036 59 0 2.0 6.0 0.00 0.00 0.00 19 1013.6
20201127194556 59 303 1.0 7.0 0.00 0.00 0.00 20 1013.8
20201127193045 58 0 0.0 6.0 0.00 0.00 0.00 24 1014.0
20201127191556 57 43 0.0 5.0 0.00 0.00 0.00 23 1014.2
20201127190102 56 0 0.0 5.0 0.00 0.00 0.00 28 1014.4
20201127184600 55 61 4.0 9.0 0.00 0.00 0.00 29 1014.5
20201127183035 55 347 2.0 6.0 0.00 0.00 0.00 30 1014.7
20201127181540 55 278 2.0 6.0 0.00 0.00 0.00 30 1014.7
20201127180057 54 5 3.0 9.0 0.00 0.00 0.00 32 1014.9
20201127174526 53 20 3.0 7.0 0.00 0.00 0.00 35 1015.0
20201127173038 53 348 2.0 8.0 0.00 0.00 0.00 38 1014.9
20201127171555 52 53 2.0 9.0 0.00 0.00 0.00 39 1015.0
20201127170106 51 14 4.0 10.0 0.00 0.00 0.00 41 1014.8
20201127164543 51 17 6.0 11.0 0.00 0.00 0.00 43 1014.7
20201127163045 52 5 6.0 10.0 0.00 0.00 0.00 43 1014.6
20201127161520 51 5 3.0 5.0 0.00 0.00 0.00 45 1014.5
20201127160108 51 323 2.0 11.0 0.00 0.00 0.00 48 1014.3
20201127154523 50 198 6.0 11.0 0.00 0.00 0.00 51 1014.0
20201127153053 49 221 6.0 12.0 0.00 0.00 0.00 53 1013.7
20201127151536 48 195 7.0 14.0 0.00 0.00 0.00 56 1013.3
20201127150135 46 199 10.0 16.0 0.00 0.00 0.00 58 1013.0
20201127144557 41 201 3.0 12.0 0.00 0.00 0.00 66 1013.0
20201127143025 40 0 0.0 0.0 0.00 0.00 0.00 60 1013.1
20201127141549 40 0 0.0 0.0 0.00 0.00 0.00 57 1012.9
20201127140144 41 0 0.0 0.0 0.00 0.00 0.00 54 1012.7
20201127134605 43 0 0.0 3.0 0.00 0.00 0.00 57 1012.5
20201127133147 45 0 0.0 1.0 0.00 0.00 0.00 57 1012.4
20201127131637 46 185 3.0 11.0 0.00 0.00 0.00 60 1012.0
20201127130053 46 190 6.0 13.0 0.00 0.00 0.00 59 1011.7
20201127124542 46 174 5.0 12.0 0.00 0.00 0.00 59 1011.4
20201127123055 47 176 3.0 10.0 0.00 0.00 0.00 57 1011.5
20201127121622 47 189 4.0 12.0 0.00 0.00 0.00 59 1011.5
20201127120035 47 194 6.0 11.0 0.00 0.00 0.00 58 1011.4
20201127114536 47 196 7.0 12.0 0.00 0.00 0.00 60 1011.5
20201127113112 47 178 3.0 7.0 0.00 0.00 0.00 54 1011.6
20201127111612 47 180 3.0 10.0 0.00 0.00 0.00 48 1011.5
20201127110123 47 161 6.0 14.0 0.00 0.00 0.00 55 1011.4
20201127104530 46 190 3.0 8.0 0.00 0.00 0.00 51 1011.5
20201127103042 45 171 4.0 9.0 0.00 0.00 0.00 51 1011.4
20201127101631 44 161 3.0 6.0 0.00 0.00 0.00 52 1011.6
20201127100114 44 156 2.0 7.0 0.00 0.00 0.00 49 1011.6
20201127094549 45 154 2.0 5.0 0.00 0.00 0.00 48 1011.5
20201127093026 45 153 3.0 7.0 0.00 0.00 0.00 47 1011.6
20201127091604 45 165 3.0 7.0 0.00 0.00 0.00 46 1011.5
20201127090131 45 164 4.0 9.0 0.00 0.00 0.00 46 1011.6
20201127084548 46 163 4.0 9.0 0.00 0.00 0.00 44 1011.6
20201127083048 46 153 5.0 9.0 0.00 0.00 0.00 44 1011.6
20201127081618 46 167 4.0 8.0 0.00 0.00 0.00 44 1011.7
20201127080113 46 178 3.0 7.0 0.00 0.00 0.00 43 1011.7
20201127074522 46 161 3.0 6.0 0.00 0.00 0.00 43 1011.8